Вернуться в каталог

STARLINK-36212

АктивенСвязьVLEO
NORAD 67216·PAYLOAD·🇺🇸 United States

Запущен Dec 17, 2025 с Vandenberg Space Force Base

Loading…

Ближайшие Пролёты (ближайшие 24 часа)

TLE

СвежийSource: CelesTrak SupGP

Эпоха: Sep 14, 2026, 21:04 UTC

1 67216C 25304AA  26257.87826389  .00029081  00000+0  24373-2 0  2576
2 67216  70.0013  57.5182 0002661 274.1223   2.1754 14.98313691    14

Отслеживайте STARLINK-36212 в реальном времени с AllMySat

Download on the App Store